Location: *
(2.5500°S, 65.9667°W)
Time: 06:54:20
(UTC+00:00)

Tiros 1 despin weight - Pass Details

Date: 17 April 2024
Orbit: 578 x 621 km, 48.2° (Epoch: 27 May)

Event Time Altitude Azimuth Distance (km) Brightness Sun altitude
Rises 13:56:45 0° 197° (SSW) 2,787 ? 51.2°
Reaches altitude 10° 13:59:27 10° 181° (S) 1,889 ? 51.8°
Maximum altitude 14:02:47 22° 130° (SE) 1,296 ? 52.6°
Drops below altitude 10° 14:06:08 10° 79° (E) 1,895 ? 53.4°
Sets 14:08:50 0° 64° (ENE) 2,799 ? 54.0°
